Terminal Aerodrome Forecast
Issued by NWS Twin Cities, MN

Home | Current Version | Previous Version | Text Only | Print | Product List | Glossary Off
Versions: 1 2 3 4 5 6 7 8 9 10 11 12 13 14 15 16 17 18

000
FTUS43 KMPX 051725
TAFSTC
TAF
KSTC 051725Z 0518/0618 12011G18KT P6SM SKC
     FM052100 12012G28KT P6SM SCT025 OVC060
     FM060500 12010KT P6SM VCSH OVC015
     FM061200 12013G20KT 5SM -RA BR SCT015 BKN025=

USA.gov is the U.S. government's official web portal to all federal, state and local government web resources and services.